| time (UTC) | temp F | wind direction | speed MPH | gust MPH | rain 1hr in | rain 24hr in | rain mn in | humidity % | barometer mb |
| 20260504222808 | 69 | 270 | 0.0 | 0.0 | 0.00 | 0.00 | 0.00 | 75 | 1015.1 |
| 20260504221807 | 68 | 0 | 0.0 | 0.0 | 0.00 | 0.00 | 0.00 | 75 | 1015.0 |
| 20260504220939 | 69 | 0 | 0.0 | 0.0 | 0.00 | 0.00 | 0.00 | 75 | 1014.9 |
| 20260504220808 | 69 | 0 | 0.0 | 0.0 | 0.00 | 0.00 | 0.00 | 75 | 1014.9 |
| 20260504215808 | 68 | 0 | 0.0 | 0.0 | 0.00 | 0.00 | 0.00 | 75 | 1015.0 |
| 20260504214807 | 68 | 315 | 0.0 | 0.0 | 0.00 | 0.00 | 0.00 | 75 | 1014.9 |
| 20260504213939 | 68 | 0 | 0.0 | 0.0 | 0.00 | 0.00 | 0.00 | 75 | 1014.9 |
| 20260504213807 | 68 | 0 | 0.0 | 0.0 | 0.00 | 0.00 | 0.00 | 75 | 1014.9 |
| 20260504212807 | 68 | 0 | 0.0 | 0.0 | 0.00 | 0.00 | 0.00 | 74 | 1014.8 |
| 20260504211758 | 68 | 0 | 0.0 | 0.0 | 0.00 | 0.00 | 0.00 | 74 | 1014.8 |
| 20260504210939 | 68 | 0 | 0.0 | 0.0 | 0.00 | 0.00 | 0.00 | 74 | 1014.8 |
| 20260504210807 | 68 | 0 | 0.0 | 0.0 | 0.00 | 0.00 | 0.00 | 74 | 1014.8 |
| 20260504205806 | 69 | 0 | 0.0 | 0.0 | 0.00 | 0.00 | 0.00 | 74 | 1014.7 |
| 20260504204808 | 69 | 270 | 0.0 | 0.0 | 0.00 | 0.00 | 0.00 | 73 | 1014.6 |
| 20260504203939 | 69 | 315 | 0.0 | 0.0 | 0.00 | 0.00 | 0.00 | 73 | 1014.6 |
| 20260504203807 | 69 | 0 | 0.0 | 0.0 | 0.00 | 0.00 | 0.00 | 73 | 1014.6 |
| 20260504202807 | 69 | 0 | 0.0 | 0.0 | 0.00 | 0.00 | 0.00 | 72 | 1014.6 |
| 20260504201807 | 69 | 0 | 0.0 | 0.0 | 0.00 | 0.00 | 0.00 | 73 | 1014.6 |
| 20260504200938 | 69 | 0 | 0.0 | 0.0 | 0.00 | 0.00 | 0.00 | 73 | 1014.5 |
| 20260504200807 | 69 | 0 | 0.0 | 0.0 | 0.00 | 0.00 | 0.00 | 72 | 1014.5 |
| 20260504195807 | 69 | 0 | 0.0 | 0.0 | 0.00 | 0.00 | 0.00 | 72 | 1014.5 |
| 20260504194807 | 69 | 270 | 0.0 | 0.0 | 0.00 | 0.00 | 0.00 | 72 | 1014.3 |
| 20260504193938 | 69 | 270 | 0.0 | 0.0 | 0.00 | 0.00 | 0.00 | 72 | 1014.2 |
| 20260504193806 | 69 | 0 | 0.0 | 0.0 | 0.00 | 0.00 | 0.00 | 72 | 1014.3 |
| 20260504192807 | 69 | 0 | 0.0 | 0.0 | 0.00 | 0.00 | 0.00 | 72 | 1014.3 |
| 20260504191806 | 69 | 315 | 0.0 | 0.0 | 0.00 | 0.00 | 0.00 | 72 | 1014.4 |
| 20260504190938 | 69 | 0 | 0.0 | 0.0 | 0.00 | 0.00 | 0.00 | 72 | 1014.5 |
| 20260504190806 | 69 | 270 | 0.0 | 0.0 | 0.00 | 0.00 | 0.00 | 72 | 1014.4 |
| 20260504185807 | 70 | 0 | 0.0 | 0.0 | 0.00 | 0.00 | 0.00 | 72 | 1014.4 |
| 20260504184806 | 70 | 0 | 0.0 | 0.0 | 0.00 | 0.00 | 0.00 | 72 | 1014.3 |
| 20260504184656 | 70 | 270 | 0.0 | 0.0 | 0.00 | 0.00 | 0.00 | 73 | 1014.4 |
| 20260504183806 | 70 | 270 | 0.0 | 0.0 | 0.00 | 0.00 | 0.00 | 72 | 1014.4 |
| 20260504182807 | 70 | 0 | 0.0 | 0.0 | 0.00 | 0.00 | 0.00 | 72 | 1014.5 |
| 20260504181807 | 70 | 270 | 0.0 | 0.0 | 0.00 | 0.00 | 0.00 | 72 | 1014.6 |
| 20260504180938 | 70 | 0 | 0.0 | 0.0 | 0.00 | 0.00 | 0.00 | 72 | 1014.6 |
| 20260504180807 | 70 | 0 | 0.0 | 0.0 | 0.00 | 0.00 | 0.00 | 72 | 1014.6 |
| 20260504175806 | 70 | 0 | 0.0 | 0.0 | 0.00 | 0.00 | 0.00 | 72 | 1014.6 |
| 20260504174806 | 70 | 315 | 0.0 | 0.0 | 0.00 | 0.00 | 0.00 | 71 | 1014.6 |
| 20260504173938 | 70 | 0 | 0.0 | 0.0 | 0.00 | 0.00 | 0.00 | 70 | 1014.5 |
| 20260504173806 | 70 | 0 | 0.0 | 0.0 | 0.00 | 0.00 | 0.00 | 70 | 1014.5 |
| 20260504172806 | 70 | 0 | 0.0 | 0.0 | 0.00 | 0.00 | 0.00 | 70 | 1014.5 |
| 20260504171807 | 70 | 0 | 0.0 | 0.0 | 0.00 | 0.00 | 0.00 | 70 | 1014.6 |
| 20260504170938 | 71 | 0 | 0.0 | 0.0 | 0.00 | 0.00 | 0.00 | 70 | 1014.7 |
| 20260504170807 | 71 | 0 | 0.0 | 0.0 | 0.00 | 0.00 | 0.00 | 70 | 1014.7 |
| 20260504150937 | 71 | 0 | 0.0 | 0.0 | 0.00 | 0.00 | 0.00 | 72 | 1016.0 |
| 20260504150806 | 71 | 0 | 0.0 | 0.0 | 0.00 | 0.00 | 0.00 | 72 | 1016.0 |
| 20260504140936 | 72 | 0 | 0.0 | 0.0 | 0.00 | 0.00 | 0.00 | 69 | 1016.4 |
| 20260504140805 | 72 | 0 | 0.0 | 0.0 | 0.00 | 0.00 | 0.00 | 69 | 1016.4 |
| 20260504130805 | 72 | 0 | 0.0 | 0.0 | 0.00 | 0.00 | 0.00 | 65 | 1016.5 |
| 20260504081804 | 79 | 0 | 0.0 | 0.0 | 0.00 | 0.00 | 0.00 | 52 | 1015.3 |
| 20260504080935 | 79 | 0 | 0.0 | 0.0 | 0.00 | 0.00 | 0.00 | 50 | 1015.3 |
| 20260504080804 | 79 | 0 | 0.0 | 0.0 | 0.00 | 0.00 | 0.00 | 50 | 1015.3 |
| 20260504044803 | 78 | 0 | 0.0 | 0.0 | 0.00 | 0.00 | 0.00 | 50 | 1016.8 |
| 20260504043935 | 78 | 0 | 0.0 | 0.0 | 0.00 | 0.00 | 0.00 | 53 | 1016.9 |
| 20260504043803 | 78 | 0 | 0.0 | 0.0 | 0.00 | 0.00 | 0.00 | 52 | 1016.9 |
| 20260504042802 | 77 | 90 | 0.0 | 0.0 | 0.00 | 0.00 | 0.00 | 52 | 1016.9 |
| 20260504041803 | 78 | 0 | 0.0 | 0.0 | 0.00 | 0.00 | 0.00 | 52 | 1017.0 |
| 20260504040934 | 77 | 0 | 0.0 | 0.0 | 0.00 | 0.00 | 0.00 | 49 | 1017.1 |
| 20260504040803 | 78 | 0 | 0.0 | 0.0 | 0.00 | 0.00 | 0.00 | 53 | 1017.1 |
| 20260504035803 | 77 | 0 | 0.0 | 0.0 | 0.00 | 0.00 | 0.00 | 53 | 1017.2 |
| 20260504034803 | 77 | 0 | 0.0 | 0.0 | 0.00 | 0.00 | 0.00 | 51 | 1017.4 |
| 20260504033802 | 77 | 0 | 0.0 | 0.0 | 0.00 | 0.00 | 0.00 | 52 | 1017.5 |
| 20260504032803 | 76 | 0 | 0.0 | 0.0 | 0.00 | 0.00 | 0.00 | 54 | 1017.5 |
| 20260504031803 | 76 | 0 | 0.0 | 0.0 | 0.00 | 0.00 | 0.00 | 55 | 1017.5 |
| 20260504030934 | 75 | 0 | 0.0 | 0.0 | 0.00 | 0.00 | 0.00 | 54 | 1017.7 |
| 20260504030803 | 75 | 0 | 0.0 | 0.0 | 0.00 | 0.00 | 0.00 | 55 | 1017.8 |
| 20260504025802 | 75 | 0 | 0.0 | 0.0 | 0.00 | 0.00 | 0.00 | 55 | 1017.8 |
| 20260504024802 | 75 | 0 | 0.0 | 0.0 | 0.00 | 0.00 | 0.00 | 58 | 1018.0 |
| 20260504023934 | 75 | 0 | 0.0 | 0.0 | 0.00 | 0.00 | 0.00 | 60 | 1018.0 |
| 20260504023803 | 74 | 0 | 0.0 | 0.0 | 0.00 | 0.01 | 0.00 | 60 | 1018.0 |
| 20260504022802 | 74 | 0 | 0.0 | 0.0 | 0.00 | 0.01 | 0.00 | 61 | 1018.0 |
| 20260504021802 | 73 | 0 | 0.0 | 0.0 | 0.00 | 0.01 | 0.00 | 62 | 1018.0 |
| 20260504020933 | 73 | 0 | 0.0 | 0.0 | 0.00 | 0.01 | 0.00 | 64 | 1018.0 |
| 20260504020802 | 73 | 0 | 0.0 | 0.0 | 0.00 | 0.01 | 0.00 | 64 | 1018.0 |
| 20260504015802 | 72 | 0 | 0.0 | 0.0 | 0.00 | 0.01 | 0.00 | 62 | 1018.0 |
| 20260504014803 | 72 | 0 | 0.0 | 0.0 | 0.00 | 0.01 | 0.00 | 64 | 1018.0 |
| 20260504013934 | 72 | 0 | 0.0 | 0.0 | 0.00 | 0.01 | 0.00 | 68 | 1018.0 |
| 20260504013801 | 72 | 0 | 0.0 | 0.0 | 0.00 | 0.01 | 0.00 | 67 | 1018.0 |
| 20260504012803 | 71 | 0 | 0.0 | 0.0 | 0.00 | 0.01 | 0.00 | 69 | 1018.0 |
| 20260504011802 | 71 | 0 | 0.0 | 0.0 | 0.00 | 0.01 | 0.00 | 73 | 1018.0 |
| 20260504010933 | 70 | 0 | 0.0 | 0.0 | 0.00 | 0.01 | 0.00 | 73 | 1018.0 |
| 20260504010802 | 70 | 0 | 0.0 | 0.0 | 0.00 | 0.01 | 0.00 | 72 | 1018.0 |
| 20260504005802 | 70 | 0 | 0.0 | 0.0 | 0.00 | 0.01 | 0.00 | 71 | 1018.0 |
| 20260504004801 | 70 | 0 | 0.0 | 0.0 | 0.00 | 0.01 | 0.00 | 71 | 1018.0 |
| 20260504003934 | 70 | 0 | 0.0 | 0.0 | 0.00 | 0.01 | 0.00 | 73 | 1017.9 |
| 20260504003802 | 70 | 0 | 0.0 | 0.0 | 0.00 | 0.01 | 0.00 | 72 | 1017.9 |
| 20260504002802 | 70 | 0 | 0.0 | 0.0 | 0.00 | 0.01 | 0.00 | 75 | 1017.9 |
| 20260504001802 | 69 | 0 | 0.0 | 0.0 | 0.00 | 0.01 | 0.00 | 73 | 1017.8 |
| 20260504000933 | 69 | 0 | 0.0 | 0.0 | 0.00 | 0.01 | 0.00 | 75 | 1017.7 |
| 20260504000802 | 69 | 0 | 0.0 | 0.0 | 0.00 | 0.01 | 0.00 | 76 | 1017.7 |
| 20260503235801 | 69 | 0 | 0.0 | 0.0 | 0.00 | 0.01 | 0.00 | 78 | 1017.7 |
| 20260503234802 | 69 | 0 | 0.0 | 0.0 | 0.00 | 0.01 | 0.00 | 79 | 1017.6 |
| 20260503233933 | 68 | 0 | 0.0 | 0.0 | 0.00 | 0.01 | 0.00 | 79 | 1017.7 |
| 20260503233801 | 68 | 0 | 0.0 | 0.0 | 0.00 | 0.01 | 0.00 | 78 | 1017.6 |
| 20260503232801 | 68 | 0 | 0.0 | 0.0 | 0.00 | 0.01 | 0.00 | 77 | 1017.6 |
| 20260503231801 | 68 | 0 | 0.0 | 0.0 | 0.00 | 0.01 | 0.00 | 76 | 1017.5 |
| 20260503230933 | 68 | 0 | 0.0 | 0.0 | 0.00 | 0.01 | 0.00 | 76 | 1017.4 |
| 20260503230802 | 68 | 0 | 0.0 | 0.0 | 0.00 | 0.01 | 0.00 | 76 | 1017.4 |
| 20260503225802 | 68 | 0 | 0.0 | 0.0 | 0.00 | 0.01 | 0.00 | 76 | 1017.2 |
| 20260503224801 | 68 | 0 | 0.0 | 0.0 | 0.00 | 0.01 | 0.00 | 76 | 1017.1 |
| 20260503223933 | 68 | 0 | 0.0 | 0.0 | 0.00 | 0.01 | 0.00 | 75 | 1017.0 |
| 20260503223801 | 68 | 0 | 0.0 | 0.0 | 0.00 | 0.01 | 0.00 | 75 | 1016.9 |